Regional Weather Roundup
Issued by NWS

Home | Current Version | Previous Version | Text Only | Print | Product List | Glossary Off
Versions: 1 2 3 4 5 6 7 8 9 10 11 12 13 14 15 16 17 18 19 20 21 22 23 24 25 26 27 28 29 30 31 32 33 34 35 36 37 38 39 40 41 42 43 44 45 46 47 48 49 50

000
ASUS43 KLOT 220008
RWRIL

ILLINOIS REGIONAL WEATHER ROUNDUP
NATIONAL WEATHER SERVICE CHICAGO/ROMEOVILLE IL
600 PM CST TUE NOV 21 2017

NOTE: "FAIR" INDICATES FEW OR NO CLOUDS BELOW 12,000 FEET WITH NO
SIGNIFICANT WEATHER AND/OR OBSTRUCTIONS TO VISIBILITY.

* THESE STATIONS ARE NOT UNDER NWS QUALITY CONTROL. THEY ALSO MAY NOT
  REPORT WEATHER SUCH AS PRECIPITATION OR FOG.

ILZ001-002-007-009-015-016-024-220100-
NORTHWEST ILLINOIS

CITY           SKY/WX    TMP DP  RH WIND       PRES   REMARKS
MOLINE         CLEAR     32  16  51 NW12G20   30.19R WCI  23
6HR MIN TEMP:  32; 6HR MAX TEMP:  37;

STERLING*      CLEAR     30  20  66 NW7       30.16R WCI  23
SAVANNA*       CLEAR     31  15  53 NW13G18   30.17R WCI  21
$$

ILZ003-004-008-010-011-017-018-220100-
NORTH CENTRAL ILLINOIS

CITY           SKY/WX    TMP DP  RH WIND       PRES   REMARKS
ROCKFORD       CLEAR     30  17  58 N9        30.15R WCI  22
6HR MIN TEMP:  30; 6HR MAX TEMP:  37;

FREEPORT*      CLEAR     29  16  58 NW12      30.15R WCI  19
ROCHELLE*      CLEAR     30  21  67 NW10      30.14R WCI  21
DE KALB*       MOCLDY    30  23  74 NW8       30.12R WCI  22
PERU*          CLOUDY    32  21  63 NW13      30.16R WCI  22
$$

ILZ005-006-012>014-019>023-220100-
NORTHEAST ILLINOIS

CITY           SKY/WX    TMP DP  RH WIND       PRES   REMARKS
CHICAGO-OHARE  PTCLDY    33  17  51 NW7       30.09R WCI  27
6HR MIN TEMP:  33; 6HR MAX TEMP:  42;

CHICAGO-MIDWAY MOCLDY    34  19  54 NW7       30.10R WCI  28
6HR MIN TEMP:  34; 6HR MAX TEMP:  42;

AURORA         PTCLDY    29  23  78 W8        30.11R WCI  21
6HR MIN TEMP:  29; 6HR MAX TEMP:  37;

LANSING*       CLEAR     32  21  64 NW7       30.10R WCI  26
JOLIET*        CLOUDY    34  23  63 NW3       30.12R
WAUKEGAN       PTCLDY    30  15  53 NW9G18    30.10R WCI  22
6HR MIN TEMP:  30; 6HR MAX TEMP:  42;

DUPAGE AIRPORT PTCLDY    31  19  61 NW7       30.09R WCI  24
6HR MIN TEMP:  30; 6HR MAX TEMP:  37;

KANKAKEE*      PTCLDY    33  22  64 NW8       30.12R WCI  26
WHEELING       PTCLDY    33  17  51 NW7       30.11R WCI  27
6HR MIN TEMP:  33; 6HR MAX TEMP:  42;

MORRIS*        PTCLDY    31  24  74 NW9       30.12R WCI  23
ROMEOVILLE*    PTCLDY    30  22  69 NW5       30.11R WCI  26
NORTHERLY ISL    N/A     35  17  48 NW9         N/A  WCI  28
$$

LMZ740>746-220100-
SOUTHERN LAKE MICHIGAN

STATION/POSITION SKY/WX   TEMP    WIND        PRES    VSBY  WAVE
                          AIR SEA DIR/SP/G                  HT/PER
                          (F)     (DEG/KT/KT) (MB)    (MI)  (FT/S)
SOUTHERN BUOY              36 47  340/ 23/ 29 1016.1          6/ 7
HARRISON CRIB              35     310/ 15/ 18   N/A
BURNHAM HARBOR             35     290/  7/ 15   N/A
CALUMET HARBOR             33     300/  8/ 12 1018.3R
BURNS HARBOR               36     320/ 20/ 26 1018.3R
MICHIGAN CITY              35     300/ 23/ 26   N/A
$$

ILZ025>027-034>036-040-047-049-050-058-095>099-220100-
WEST-CENTRAL ILLINOIS

CITY           SKY/WX    TMP DP  RH WIND       PRES   REMARKS
QUINCY         CLEAR     32  20  61 NW13      30.20R WCI  22
GALESBURG*     CLEAR     30  21  70 NW8       30.20R WCI  22
MACOMB*        CLEAR     31  21  67 NW12      30.22R WCI  21
JACKSONVILLE*  CLEAR     33  20  59 NW15      30.20R WCI  23
PITTSFIELD*    CLEAR     34  22  60 NW12      30.21R WCI  25
$$

ILZ028>032-037-038-041>044-048-051>054-059>061-220100-
CENTRAL ILLINOIS

CITY           SKY/WX    TMP DP  RH WIND       PRES   REMARKS
PONTIAC        MOCLDY    32  26  77 NW8       30.14R WCI  25
BLOOMINGTON    CLOUDY    32  20  61 NW14      30.15R WCI  22
DECATUR        PTCLDY    34  22  61 NW15      30.15R WCI  24
PEORIA         CLEAR     31  19  61 NW7       30.19R WCI  24
6HR MIN TEMP:  31; 6HR MAX TEMP:  41;

LACON*         CLEAR     31  21  66 NW9G16    30.17R WCI  23
LINCOLN*       CLEAR     33  24  68 NW7       30.18R WCI  27
SPRINGFIELD    CLEAR     34  22  61 NW13      30.18R WCI  25
6HR MIN TEMP:  34; 6HR MAX TEMP:  51;

TAYLORVILLE    PTCLDY    34  21  60 NW16      30.16R WCI  24
6HR MIN TEMP:  34; 6HR MAX TEMP:  52;

$$

ILZ033-039-045-046-055>057-062-063-220100-
EAST-CENTRAL ILLINOIS

CITY           SKY/WX    TMP DP  RH WIND       PRES   REMARKS
CHAMPAIGN      MOCLDY    33  23  66 NW16      30.13R WCI  23
DANVILLE*      CLOUDY    34  26  74 NW14G20   30.08R WCI  24
RANTOUL*       PTCLDY    33  26  74 NW12      30.12R WCI  25
MATTOON        CLOUDY    39  26  59 NW13      30.10R WCI  31
PARIS*         CLOUDY    36  33  91 NW12      30.11R WCI  28
$$

ILZ079-100>102-220100-
SOUTHWEST ILLINOIS

CITY           SKY/WX    TMP DP  RH WIND       PRES   REMARKS
ALTON          PTCLDY    41  27  56 NW6       30.16R
BELLEVILLE     CLOUDY    45  24  43 N13       30.14R
CAHOKIA*       CLOUDY    46  20  35 NW18      30.16R
SPARTA*        CLOUDY    47  28  48 NW13G20   30.13R
$$

ILZ064>066-069>071-074>076-080>082-084>086-088>090-092>094-220100-
SOUTH-CENTRAL ILLINOIS

CITY           SKY/WX    TMP DP  RH WIND       PRES   REMARKS
CARBONDALE     CLOUDY    51  34  52 N18G24    30.08R
6HR MIN TEMP:  51; 6HR MAX TEMP:  58;

CAIRO*         CLEAR     44  39  82 CALM      30.06R
EFFINGHAM*     CLOUDY    42  28  59 NW12G23   30.13R
MARION         PTCLDY    54  36  50 NW15      30.07R
MT. VERNON     CLOUDY    47  26  44 NW9       30.10R
CENTRALIA*     CLOUDY    45  28  52 N22G29    30.11R
SALEM*         CLOUDY    44  25  46 N16G23    30.11R
METROPOLIS*    CLEAR     48  39  71 CALM      30.06R
$$

ILZ067-068-072-073-078-083-087-091-220100-
SOUTHEAST ILLINOIS

CITY           SKY/WX    TMP DP  RH WIND       PRES   REMARKS
LAWRENCEVILLE  CLOUDY    49  34  56 N23G30    30.06R
FLORA*         CLOUDY    46  29  50 NW15G21   30.09R
FAIRFIELD*     CLOUDY    47  27  45 NW3       30.07R
HARRISBURG*    CLOUDY    51  37  60 NW5       30.05R
ROBINSON*      DRIZZLE   44  32  61 NW15      30.08R
CARMI*         CLOUDY    49  38  68 NW9       30.04R
$$

ABBREVIATIONS USED IN REMARKS
   TC - TEMPERATURE IN CELSIUS
  WCI - WIND CHILL INDEX
   HX - HEAT INDEX
  VSB - VISIBILITY
$$





USA.gov is the U.S. government's official web portal to all federal, state and local government web resources and services.